Location: Silent Lake
(44.9206°N, 78.0708°W)
Time: 23:59:42
(UTC-04:00)

Helios 1B rocket - Pass Details

Date: 19 April 2018
Orbit: 577 x 584 km, 98.2° (Epoch: 23 May)

Event Time Altitude Azimuth Distance (km) Brightness Sun altitude
Rises 23:09:17 0° 8° (N) 2,812 6.6 -27.2°
Reaches altitude 10° 23:11:30 10° 3° (N) 1,909 5.7 -27.4°
Enters shadow 23:14:58 46° 314° (NW) 789 3.4 -27.8°
